EHI
2 6 10 11 9 7 6 5 5 5 5 6 5 6 8 7 6 5 5 5 4 3 3 3 3 3 3 4 6 8 7 4 2 2 1 0 0 1 2 2 1 1 1
3 4 8 10 8 6 5 5 5 5 5 4 4 5 7 7 5 4 4 4 4 4 3 3 3 3 3 3 4 6 5 3 1 1 0 0 1 2 4 3 2 1 1
4 4 6 9 7 6 5 6 6 5 4 3 3 4 5 5 4 4 3 4 4 4 3 3 3 3 3 3 4 5 4 1 0 0 0 1 1 2 4 3 2 2 1
6 5 5 6 6 5 5 6 6 5 4 3 3 3 4 3 4 4 4 3 3 3 2 2 3 2 2 2 3 4 3 1 0 0 0 0 0 1 2 3 3 3 3
8 7 7 7 6 5 5 5 5 5 4 3 3 3 3 3 3 4 3 3 1 1 0 1 2 1 1 1 1 2 2 1 0 0 0 0 1 2 1 1 3 3 3
10 8 8 10 9 6 5 4 5 5 5 4 3 3 3 3 3 3 3 2 1 0 0 0 0 1 1 1 1 1 1 1 0 0 0 0 2 3 2 2 3 3 3
11 9 9 13 14 8 3 2 3 3 3 3 4 4 4 4 4 4 3 2 1 1 1 0 0 1 2 3 3 3 2 2 1 0 1 1 3 5 5 4 3 3 3
11 8 7 11 13 10 5 3 3 2 2 3 5 6 6 5 5 5 4 3 1 2 2 1 0 1 2 5 5 4 3 3 1 1 2 3 4 5 5 5 4 3 3
8 6 6 7 10 10 8 7 5 4 3 4 6 6 6 7 8 8 6 3 2 3 3 3 2 2 4 6 7 6 5 4 3 2 1 3 4 4 4 5 4 4 4
4 4 5 7 8 8 7 8 8 7 7 6 7 7 8 8 10 10 8 4 3 4 4 5 5 4 6 9 11 11 8 5 3 2 2 2 3 3 4 4 4 4 5
2 2 4 7 7 5 5 7 8 10 10 8 8 9 9 8 8 8 6 5 6 7 7 7 7 6 6 8 12 13 9 5 3 4 6 5 4 4 4 5 5 5 5
3 3 4 5 4 3 4 6 8 10 11 10 10 10 10 8 5 4 4 7 10 10 9 8 8 7 6 6 9 10 7 3 2 5 9 11 8 6 5 4 4 4 4
5 5 5 4 4 4 5 6 7 9 11 12 12 11 10 9 6 4 5 8 10 11 10 9 8 7 6 5 6 7 5 2 1 4 9 13 11 8 6 4 4 4 4
5 5 5 5 5 6 9 9 7 8 10 12 13 12 11 10 9 8 8 7 9 9 8 8 7 7 7 6 6 6 4 2 1 3 8 12 13 10 7 5 4 3 3
3 4 5 7 7 8 13 13 8 8 9 10 11 13 13 12 12 11 10 9 9 8 7 7 6 6 8 8 7 5 4 2 3 4 7 10 12 10 8 6 4 3 3
3 4 7 9 9 10 13 13 9 8 9 9 11 14 15 14 13 13 13 12 11 10 9 7 6 6 8 10 8 6 4 4 5 6 7 8 9 10 9 8 7 6 6
5 6 8 8 9 10 11 8 6 6 7 8 12 13 14 13 13 14 15 15 13 13 12 11 8 7 8 10 9 8 7 7 8 7 7 7 8 8 9 10 11 11 10
6 7 7 7 9 12 12 8 6 7 8 9 11 11 11 11 11 12 14 15 15 15 15 15 12 9 8 8 8 9 9 9 8 7 7 9 9 9 10 11 12 12 13
11 11 10 10 11 14 15 13 11 12 15 14 12 12 12 10 9 9 11 13 13 14 14 14 13 11 8 7 7 9 9 9 8 7 8 10 12 11 11 10 11 11 13
21 20 17 16 15 15 17 16 15 16 19 19 17 17 16 11 9 10 11 11 10 11 11 11 11 11 10 8 6 7 9 9 10 11 10 12 14 13 12 11 11 11 12
26 27 25 22 19 18 17 16 16 18 20 21 22 24 22 15 11 12 12 11 10 10 11 10 9 9 10 8 6 5 8 10 12 14 13 13 14 14 14 14 14 13 12
25 28 30 28 25 22 20 18 17 20 20 20 23 27 26 19 13 13 15 13 11 12 12 11 10 8 7 5 3 3 7 10 10 10 11 12 13 14 14 16 17 15 13
24 27 31 35 34 30 25 19 16 19 20 18 21 26 26 21 16 15 17 16 13 13 13 12 11 9 7 5 3 3 6 8 8 6 7 9 12 13 13 15 16 16 14
26 28 33 38 40 37 30 22 17 16 17 15 18 24 26 23 21 20 20 19 17 16 14 12 11 10 10 9 6 4 6 8 8 5 5 9 11 12 12 12 13 13 13
25 27 32 38 40 38 34 27 20 15 13 12 14 21 24 25 26 25 23 21 20 18 17 14 11 11 11 9 6 3 4 7 7 5 5 8 11 12 11 10 11 13 14
23 23 29 37 40 37 34 29 22 15 11 9 12 17 23 26 28 27 23 21 20 20 20 17 14 12 10 7 5 3 4 6 6 5 6 8 10 11 9 9 11 15 17
Wind_Speed
10 11 12 11 10 9 9 9 9 9 9 8 8 7 7 6 6 6 6 7 7 8 8 8 8 7 7 7 8 8 9 9 9 9 10 9 9 8 7 7 7 6 9
13 12 12 11 10 9 8 8 9 9 8 8 7 7 7 6 6 6 7 7 8 8 8 8 8 7 7 7 7 8 8 9 10 10 10 9 9 9 7 7 7 6 9
13 12 11 11 10 9 9 8 8 8 8 7 7 7 6 6 7 7 7 7 8 8 8 7 7 7 7 7 7 7 8 8 8 9 9 7 8 9 9 8 8 8 8
13 11 11 10 10 10 9 9 8 8 7 7 7 7 7 7 7 7 7 7 7 7 7 7 7 6 6 6 7 7 7 7 7 8 6 5 7 10 10 9 8 8 8
12 12 11 11 11 10 9 9 8 8 7 7 7 7 7 7 7 7 7 7 7 7 6 6 6 6 6 6 7 7 6 6 7 6 4 5 6 10 10 9 8 8 8
12 13 12 11 11 11 10 9 8 7 7 7 7 6 7 7 7 7 7 7 6 6 6 6 6 5 5 6 6 6 7 7 6 5 3 5 6 10 11 9 8 8 8
12 12 12 12 11 10 10 9 7 7 7 6 6 6 5 5 6 6 6 7 6 6 6 6 5 4 4 5 6 6 7 7 5 3 4 6 7 11 11 9 8 8 8
11 11 11 11 11 10 10 9 8 7 7 6 6 5 5 5 5 5 6 6 6 6 6 6 5 4 4 4 4 5 5 6 4 3 4 6 10 12 11 10 9 8 8
10 10 8 9 9 10 9 9 8 6 6 6 5 4 4 4 5 5 5 5 5 5 4 5 5 4 3 4 4 5 5 5 4 2 4 5 11 12 11 10 9 8 8
8 7 7 7 7 7 8 9 7 6 5 5 4 3 3 4 4 5 5 5 5 4 4 4 4 4 4 4 4 5 5 5 4 2 3 7 13 13 11 10 9 8 8
7 5 5 5 5 4 5 8 8 6 5 4 3 3 2 2 3 3 4 5 5 4 4 5 5 5 4 4 5 5 4 2 2 1 4 9 12 12 10 9 9 8 8
6 5 5 5 4 3 3 5 3 3 3 3 1 1 1 1 1 3 5 5 5 5 5 5 5 5 4 3 4 4 2 3 1 2 6 12 11 11 9 8 8 8 8
6 5 5 5 4 3 2 2 2 2 2 2 1 0 1 0 1 2 2 3 4 4 3 3 4 3 3 2 2 3 2 2 1 2 6 11 11 10 9 7 7 7 7
6 6 5 5 4 3 2 2 2 2 2 2 2 1 1 0 0 1 0 2 2 2 2 2 2 2 2 2 2 2 1 1 2 3 5 10 10 10 8 7 7 7 7
6 6 6 4 3 2 2 1 2 2 2 2 1 1 1 1 1 1 0 0 0 1 1 1 1 1 1 1 1 1 1 1 3 4 4 9 10 9 8 7 7 6 6
5 5 4 4 4 2 1 1 1 1 2 2 2 2 1 1 1 0 0 0 0 0 0 0 1 1 1 0 1 1 2 2 2 4 5 6 9 9 9 8 7 7 7
6 5 3 4 4 2 1 0 1 1 2 2 2 2 1 1 0 0 1 1 0 0 1 1 0 1 1 1 1 1 1 2 3 3 5 4 5 8 9 9 8 8 7
6 4 2 3 4 3 2 1 1 2 2 2 2 1 1 1 1 0 0 0 0 0 0 1 0 1 1 1 1 1 1 2 2 3 3 4 4 5 7 9 9 8 8
6 4 3 3 3 2 2 1 1 1 1 1 1 1 1 1 1 0 1 1 1 0 0 1 1 0 0 0 1 1 2 2 3 3 3 4 4 5 5 7 9 9 9
6 4 3 3 2 1 1 1 1 1 0 1 1 1 1 1 1 1 0 1 1 0 0 0 0 0 0 1 1 1 2 2 2 2 3 3 3 4 5 6 5 6 9
6 5 3 2 2 1 1 0 0 1 1 1 1 2 1 0 1 0 1 0 1 1 0 1 1 1 1 1 1 0 1 2 3 3 2 3 3 3 4 5 5 4 5
6 5 4 3 2 1 1 1 1 0 0 1 1 2 1 0 1 0 0 1 1 1 1 1 1 1 1 1 1 1 1 1 1 3 3 3 3 3 4 5 5 5 4
6 5 4 3 2 1 0 0 1 1 0 0 0 1 1 1 0 1 0 1 1 1 1 1 1 1 1 1 1 1 1 1 1 1 2 2 3 2 3 3 5 5 5
6 6 5 4 2 2 1 1 1 0 0 1 0 1 1 1 0 1 1 1 1 1 1 1 0 1 1 1 1 1 1 1 1 1 1 1 2 3 2 3 4 5 5
6 6 5 4 3 2 1 1 2 2 1 1 1 1 1 0 0 1 1 1 1 1 1 1 1 1 1 1 1 1 1 0 1 1 1 2 2 2 2 2 2 4 5
6 6 6 5 3 2 1 1 1 2 2 3 2 2 1 1 1 1 1 1 1 1 1 1 1 2 2 2 2 2 1 1 1 1 1 2 2 2 2 2 2 3 4
Wind_Direction
97 102 101 97 95 96 94 93 93 93 91 86 84 83 85 86 87 92 101 111 120 127 129 132 133 134 135 137 138 140 142 144 145 144 143 141 137 134 134 134 135 122 125
105 105 101 95 94 94 94 96 96 94 94 92 90 87 84 84 86 89 100 109 117 122 124 128 129 133 135 138 141 145 149 150 155 158 155 150 145 142 141 133 128 126 132
106 108 104 97 96 95 97 98 98 97 96 95 94 90 84 82 84 89 96 104 111 116 122 127 132 134 138 140 143 148 153 157 167 174 171 159 148 146 144 139 135 133 136
107 107 103 104 99 98 99 100 100 99 99 98 95 92 87 85 87 87 92 102 111 117 120 122 131 137 141 144 148 154 160 166 179 186 185 167 152 150 151 148 144 143 144
104 106 109 111 106 102 99 98 96 96 96 97 99 97 94 90 87 86 91 101 110 116 117 122 131 139 145 153 159 164 171 180 191 204 192 156 145 153 156 153 148 148 147
110 111 115 116 110 107 103 100 98 96 95 96 99 100 99 96 93 92 96 101 107 115 121 124 129 137 152 164 168 173 178 194 204 214 178 148 141 156 162 159 154 154 153
107 113 119 120 116 113 110 107 104 106 103 102 99 100 103 104 102 101 104 105 109 117 124 125 127 135 149 161 172 179 189 205 221 217 161 144 147 158 163 161 162 161 159
104 110 118 127 126 125 121 115 112 109 105 100 100 109 112 110 111 113 112 107 108 119 128 129 131 139 149 161 171 190 201 216 222 208 148 143 150 157 161 163 165 166 164
104 110 125 135 137 137 132 127 125 124 122 116 111 119 128 123 128 129 121 113 113 117 129 136 140 150 161 173 183 199 213 230 255 244 153 135 150 157 161 163 167 171 170
98 108 126 134 139 145 144 142 142 136 134 132 136 143 143 143 144 149 138 131 132 137 143 151 158 169 182 198 209 215 223 240 248 226 128 134 147 156 162 165 170 173 174
81 87 93 101 113 128 131 141 156 155 154 149 159 172 164 179 176 164 141 153 160 164 167 171 181 196 200 211 223 234 241 237 238 134 110 135 149 155 162 167 172 172 176
87 86 81 79 83 95 118 129 142 144 158 161 150 177 200 198 152 142 152 168 178 186 185 189 195 204 212 205 211 221 237 225 210 120 121 140 148 153 159 166 173 177 181
83 75 75 80 75 67 71 108 106 126 147 142 130 206 143 130 131 136 154 167 190 194 199 187 197 213 204 183 184 191 212 217 157 119 130 143 148 153 160 170 174 176 184
82 80 68 73 66 52 46 59 102 103 104 96 119 61 71 85 45 87 179 175 188 182 188 184 199 199 196 177 176 172 166 153 120 108 139 150 153 157 164 170 176 181 185
84 83 86 80 82 80 64 15 71 84 81 92 80 72 35 58 63 49 12 4 297 158 168 193 162 138 206 200 180 169 166 132 123 128 136 157 158 164 170 174 179 183 187
87 83 89 93 90 80 88 80 58 105 114 90 85 69 31 57 94 61 22 302 295 124 85 143 213 171 198 204 176 193 170 159 132 142 147 166 169 171 177 182 187 190 190
98 84 87 105 101 99 70 100 93 96 100 95 95 81 51 66 82 188 198 212 234 170 161 178 259 206 205 198 178 192 175 165 151 151 155 163 173 179 183 187 190 195 196
98 94 74 72 95 111 105 54 37 60 70 89 95 94 83 62 11 323 253 188 100 158 167 166 208 233 199 160 184 211 185 170 166 163 163 167 172 176 187 191 193 197 200
103 103 89 65 73 105 123 124 112 82 76 71 82 65 73 76 39 333 32 356 270 260 331 280 105 301 229 187 206 206 181 172 174 177 170 177 179 168 169 186 193 198 203
118 112 103 94 70 61 99 117 107 86 130 126 108 90 66 10 39 11 37 327 332 349 355 354 58 265 250 252 246 197 183 184 173 171 182 180 184 171 166 169 186 198 203
127 126 116 98 92 77 50 17 179 159 189 145 132 103 106 76 36 12 331 322 299 291 311 325 350 286 260 213 228 223 192 196 169 172 181 171 185 177 162 167 181 182 189
137 133 127 117 89 80 113 231 244 228 203 137 87 117 130 69 359 308 318 308 306 323 305 285 272 260 272 246 229 227 165 242 233 185 170 182 188 183 177 180 176 175 174
141 135 129 121 113 90 350 311 297 147 265 63 119 136 133 85 53 338 354 325 313 296 257 244 223 233 256 273 241 172 162 205 241 185 192 191 184 183 186 174 176 169 182
135 130 121 115 102 69 36 5 331 37 30 47 29 72 79 86 259 275 273 267 290 303 301 286 192 255 245 274 264 246 216 166 181 193 216 207 206 192 198 201 176 170 175
141 136 126 114 106 89 52 10 340 352 358 13 18 42 26 292 252 281 276 277 279 290 294 293 313 286 267 271 286 280 279 236 221 189 202 204 214 206 195 206 174 168 169
145 140 130 123 114 110 90 41 12 353 358 351 344 347 326 298 269 275 267 281 281 269 273 260 257 247 252 260 273 277 275 285 282 250 215 203 197 205 192 200 191 177 178